User: anonymous   Login
Location: Nairn
(57.5833°N, 3.8667°W)
Time: 11:23:19
(UTC+00:00)
Language:

Cosmos 2112 Rocket - Orbit

View from above orbital plane
View from above orbital plane
View from above satellite
View from above satellite

Ground track
Ground track

The orbit data is extracted from the following two-line orbital elements,

1 21015U 90111B   20299.78745785 +.00000039 +00000-0 +22451-4 0  9994
2 21015 074.0526 047.2187 0021742 005.9412 157.2651 14.36015934661951
Epoch (UTC): 25 October 2020 18:53:56
Eccentricity: 0.0021742
inclination: 74.0526°
perigee height: 756 km
apogee height: 787 km
right ascension of ascending node: 47.2187°
argument of perigee: 5.9412°
revolutions per day: 14.36015934
mean anomaly at epoch: 157.2651°
orbit number at epoch: 66195

The dashed part of the orbit path shows where the satellite is in the earth's shadow,  

DLR